Overview Statistics Trail Chart Weather Telemetry Raw packets
 

This is the latest recevied weather packets stored in our database for station/object AB4BJ-10. If no packets are shown the sender has not sent any weather packets the latest 10 day(s).

<< 70 71 72 73 74 75 76 >>
Time Temp. Humidity Pressure Rain* Wind** Luminosity Snow
1788119759 31.11° C 64% 1015.4 hPa 0 mm - - -
1788118857 31.11° C 71% 1015.5 hPa 0 mm - - -
1788118557 31.11° C 67% 1015.5 hPa 0 mm - - -
1788118257 31.11° C 68% 1015.6 hPa 0 mm - - -
1788117656 30.56° C 70% 1016 hPa 0 mm - - -
1788117573 30° C 69% 1016.1 hPa 0 mm - - -
1788117356 30° C 69% 1016.1 hPa 0 mm - - -
1788117056 30.56° C 69% 1016.1 hPa 0 mm - - -
1788116519 30.56° C 73% 1016.2 hPa 0 mm - - -
1788116456 30.56° C 73% 1016.2 hPa 0 mm - - -
1788116199 30.56° C 71% 1016.2 hPa 0 mm - - -
1788116157 30.56° C 71% 1016.2 hPa 0 mm - - -
1788115855 30.56° C 69% 1016.4 hPa 0 mm - - -
1788115255 30.56° C 70% 1016.5 hPa 0 mm - - -
1788114655 30.56° C 68% 1016.7 hPa 0 mm - - -
1788114054 31.11° C 65% 1016.8 hPa 0 mm - - -
1788113753 31.11° C 66% 1016.9 hPa 0 mm - - -
1788113456 31.11° C 66% 1016.9 hPa 0 mm - - -
1788113153 31.11° C 66% 1017 hPa 0 mm - - -
1788112852 30.56° C 67% 1017.2 hPa 0 mm - - -
1788112555 30° C 69% 1017.1 hPa 0 mm - - -
1788112251 30.56° C 69% 1017.3 hPa 0 mm - - -
1788111651 30.56° C 70% 1017.4 hPa 0 mm - - -
1788111050 30° C 73% 1017.5 hPa 0 mm - - -
1788110487 30° C 73% 1017.6 hPa 0 mm - - -

* Rain latest hour (hover to see other rain measurements)
** Current wind speed in m/s (hover to see current wind gust speed)